Погода в Удмуртских Ключах

Россия / Удмуртская Республика     58°02′26″N   52°27′38″E
темп.,
°C
ветер,
м/с
пор.,
м/с
влажн.,
%
обл.,
%
осадки,
мм/ч
давл.,
гПа
погр.,
м
23 сентября, чт
чт2301:00+2в389410 0.0 1026160
04:00+2в37955 0.0 1027136
07:00+2в36925 0.0 1027124
10:00+9вюв46625 0.0 1026394
13:00+13юв454959 0.0 1025900
16:00+14юв455099 0.0 10251114
19:00+10юв3667100 0.0 1024160
22:00+9вюв396899 0.0 1024254
24 сентября, пт
пт2401:00+9вюв3970100 0.0 1023253
04:00+7вюв4117798 0.0 1022266
07:00+8юв41171100 0.0 1021352
10:00+8юв41271100 0.1 1021475
13:00+9юв51271100 0.1 1020591
16:00+10юв5116398 0.1 1019689
19:00+10юв51272100 0.0 1019582
22:00+8юв51382100 0.7 1019617
25 сентября, сб
сб2501:00+7юв51391100 1.9 1019620
04:00+7юв51095100 4.3 1018585
07:00+7юв4996100 0.9 1017443
10:00+7юв51093100 1.3 1016584
13:00+9в4984100 0.4 1015531
16:00+9в4981100 0.4 1014518
19:00+8вюв4990100 0.7 1015416
22:00+8вюв41186100 0.9 1013525
26 сентября, вс
вс2601:00+8вюв41193100 0.0 1013535
04:00+7вюв41194100 0.0 1013519
07:00+7в41094100 0.0 1013387
10:00+8в4989100 0.0 1013369
13:00+10вюв61070100 0.0 1013741
16:00+8в51188100 0.8 1015662
19:00+8вюв61086100 0.1 1015802
22:00+7в61193100 0.8 1016826
27 сентября, пн
пн2701:00+7в61092100 0.4 10171032
04:00+5в61093100 0.6 1019920
07:00+3в61286100 0.0 1021715
10:00+5в61173100 0.0 1022804
13:00+7в695690 0.0 1023972
16:00+9всв59495 0.0 10241223
19:00+5всв411655 0.0 1026408
22:00+2всв411765 0.0 1028341